Skip Page Navigation
NASA JPL Caltech
NASA Logo - Jet Propulsion Laboratory + View the NASA Portal
+ Center for Near-Earth Object Studies
JPL Home Earth Solar System Stars & Galaxies Technology
JPL Solar System Dynamics
BODIES ORBITS EPHEMERIDES TOOLS PHYSICAL DATA DISCOVERY FAQ SITE MAP
IMPORTANT: The SSD Announcement email list is now available. Major changes are coming in the near future, including possible hostname and/or URL changes. To be notified of such changes, subscribe to this email list.

Please visit this page for more details.


JPL Small-Body Database Browser
Search: [ help ]  
34043 (2000 OS31)
Classification: Main-belt Asteroid          SPK-ID: 2034043
Ephemeris | Orbit Diagram | Orbital Elements | Mission Design | Physical Parameters | Discovery Circumstances | Close-Approach Data ]

[ show orbit diagram ]
Orbital Elements at Epoch 2458600.5 (2019-Apr-27.0) TDB
Reference: JPL 21 (heliocentric ecliptic J2000)
 Element Value Uncertainty (1-sigma)   Units 
e .1441868928974723 3.8755e-08  
a 2.758268702706407 1.5258e-08 au
q 2.360562508686828 1.1177e-07 au
i 13.08249458767084 4.6437e-06 deg
node 170.3797134844372 1.7314e-05 deg
peri 132.6905471015831 2.3327e-05 deg
M 33.84016274154275 1.4959e-05 deg
tp 2458443.216477677855
(2018-Nov-20.71647768)
6.9358e-05 TDB
period 1673.220914108131
4.58
1.3884e-05
3.801e-08
d
yr
n .2151538968731389 1.7852e-09 deg/d
Q 3.155974896725986 1.7458e-08 au
  Orbit Determination Parameters
   # obs. used (total)      1035  
   data-arc span      7500 days (20.53 yr)  
   first obs. used      1998-02-16  
   last obs. used      2018-08-30  
   planetary ephem.      DE431  
   SB-pert. ephem.      SB431-N16  
   condition code      0  
   norm. resid. RMS      .55438  
   source      ORB  
   producer      Otto Matic  
   solution date      2019-Jul-13 01:39:58  

Additional Information
 Earth MOID = 1.3667 au 
 Jupiter MOID = 2.2358 au 
 T_jup = 3.290 
[ show covariance matrix ]

Ephemeris | Orbit Diagram | Orbital Elements | Mission Design | Physical Parameters | Discovery Circumstances | Close-Approach Data ]

Physical Parameter Table
Parameter Symbol Value Units Sigma Reference Notes
absolute magnitude H 14.3   n/a MPO319501  

34043 (2000 OS31)          Discovered 2000-Jul-30 by LINEAR at Socorro
Reference: 20020128/Numbers.arcLast Updated: 2004-04-19

[ show close-approach data ]
Ephemeris | Orbit Diagram | Orbital Elements | Mission Design | Physical Parameters | Discovery Circumstances | Close-Approach Data ]
ABOUT SSD CREDITS/AWARDS PRIVACY/COPYRIGHT GLOSSARY LINKS
FirstGov 2019-Oct-21 16:27 UT
(server date/time)  
NASA Home Page
Site Manager:   Ryan S. Park
Webmaster  Alan B. Chamberlin